Theta_e
294 296 298 299 300 302 301 303 300 302 302 307 313 314 317 320 321 322 322 323 325 325 327 328 328 327 325 326 327 329 328 331 334 335 335 334 334 334 335 332 335 331 333 332
290 295 298 298 300 301 303 303 303 304 303 310 314 314 314 316 319 321 322 323 325 326 327 327 327 325 325 326 327 328 328 331 332 333 332 333 334 334 335 334 334 333 333 331
286 294 296 293 299 301 302 305 304 300 305 310 309 310 313 316 317 320 323 324 325 326 328 328 327 326 324 326 327 327 329 331 331 331 331 331 332 332 333 334 336 335 334 333
289 292 286 298 305 304 303 305 307 306 307 309 311 314 314 316 319 318 323 325 326 327 329 330 328 326 326 326 326 326 329 330 331 331 331 330 331 332 334 339 336 337 335 334
286 289 296 298 303 302 302 302 308 307 307 311 312 312 313 319 320 323 326 328 329 330 331 331 327 326 325 325 324 325 328 330 330 331 331 332 333 334 338 338 338 335 335 334
291 288 285 296 305 308 308 299 308 309 309 310 311 305 313 319 321 323 329 329 330 331 331 331 328 327 325 324 323 324 327 330 331 331 332 332 335 336 337 339 337 335 333 334
290 292 295 300 306 307 297 298 309 310 311 311 310 314 316 319 320 323 326 329 332 331 331 331 328 327 324 325 322 325 328 331 332 334 333 335 336 337 338 337 336 333 332 334
293 291 288 303 305 301 304 309 310 310 311 310 313 315 317 319 321 322 324 328 331 330 331 332 328 326 324 324 325 326 327 330 332 334 333 334 335 335 336 338 336 332 332 330
291 288 297 302 302 306 308 309 309 310 311 313 314 315 318 320 322 324 324 328 330 331 331 331 329 327 324 326 325 325 326 329 332 334 333 335 334 334 332 335 331 332 331 327
293 294 297 300 303 304 307 307 311 311 312 313 314 316 319 322 323 324 326 326 329 330 330 330 329 327 327 327 325 324 326 328 331 332 332 334 332 330 330 329 329 329 328 328
291 294 300 301 303 304 306 309 310 312 312 312 313 316 319 321 325 326 327 328 329 330 331 331 329 327 327 327 325 325 327 327 329 331 332 332 332 328 327 333 324 328 328 328
290 296 297 300 304 306 306 307 309 310 311 314 314 315 318 320 325 328 328 329 327 330 331 332 329 328 326 327 325 327 328 326 326 327 331 330 329 329 298 303 302 304 303 314
296 301 303 305 305 307 306 309 310 310 312 313 315 315 318 318 322 322 328 329 327 329 331 332 330 328 326 326 326 327 330 329 325 321 327 330 329 329 327 317 302 304 301 301
303 302 299 302 302 306 308 309 310 311 313 315 315 316 316 317 319 324 327 329 330 328 330 332 331 328 327 327 325 327 332 309 326 323 325 324 327 328 329 327 325 325 305 308
301 303 304 306 307 306 308 309 309 309 311 312 315 316 316 316 317 321 327 329 330 328 328 331 330 329 328 328 327 326 329 325 326 324 324 321 325 324 325 326 327 325 325 307
303 303 304 305 305 305 305 306 308 308 310 310 312 314 315 317 318 320 324 330 329 326 328 330 331 331 329 330 331 328 330 314 317 325 323 323 324 324 323 323 323 324 324 324
299 301 303 303 302 305 305 307 308 308 309 310 311 313 314 317 317 318 321 325 331 331 330 330 331 332 330 331 334 327 328 327 317 324 323 322 322 323 323 323 322 322 323 323
302 303 304 305 304 304 305 307 309 309 310 311 311 312 313 314 316 317 319 323 331 331 332 333 332 333 331 331 335 330 330 329 326 324 324 322 322 322 323 323 322 323 323 320
305 303 305 306 307 306 306 306 307 309 311 312 312 311 312 314 316 318 319 322 328 330 332 336 314 324 334 329 327 331 330 329 328 327 326 316 323 322 322 323 322 323 323 323
303 304 305 304 306 307 304 306 307 308 309 312 313 311 311 312 315 317 318 320 326 325 328 333 332 335 334 329 308 331 330 330 329 328 327 325 326 326 324 312 321 322 324 324
303 305 305 307 305 304 304 305 304 305 308 308 311 311 312 313 314 315 317 317 325 320 319 316 331 334 332 321 322 329 330 332 332 331 328 327 327 327 328 324 324 323 325 325
305 305 305 305 306 306 306 305 305 305 306 307 308 311 313 313 314 314 317 319 321 303 314 323 324 304 316 299 330 330 328 331 331 332 331 330 330 330 330 330 327 327 327 328
305 305 305 305 305 306 306 307 305 305 303 303 304 306 308 311 314 312 312 319 321 309 320 320 298 292 292 326 331 331 330 329 330 329 331 331 332 330 331 330 331 331 332 332
305 305 305 306 306 306 304 306 306 304 304 304 304 304 303 303 306 313 317 309 301 304 317 316 306 291 289 327 329 331 330 329 330 330 331 310 330 329 329 330 329 330 331 327
305 305 305 304 305 304 306 305 305 306 305 303 302 303 302 304 302 305 309 312 303 308 319 303 294 292 318 321 327 329 329 332 332 331 332 332 330 330 330 330 329 327 327 327
305 305 305 306 305 305 306 305 304 304 303 302 301 302 302 302 302 301 302 301 309 307 316 317 318 317 321 324 326 328 329 330 328 331 328 332 332 332 330 329 329 325 328 330
304 301 304 305 304 305 304 304 302 302 302 303 301 301 301 301 298 298 295 297 301 307 313 317 318 312 317 318 321 325 328 329 318 330 331 331 332 332 332 332 332 331 332 331
Wind_Speed
4 22 28 27 30 27 31 22 16 20 11 12 16 14 11 12 13 15 17 17 17 16 16 16 15 14 13 12 12 10 9 9 9 7 7 8 6 6 5 2 2 6 5 7
9 20 29 19 29 25 26 20 19 13 16 10 15 12 10 10 13 15 16 17 17 17 17 16 16 14 13 12 12 11 9 12 8 9 8 9 9 7 5 5 4 8 5 9
6 18 25 16 22 28 22 25 17 11 9 10 5 5 4 11 3 13 15 15 17 17 17 16 15 14 14 13 12 11 10 12 10 10 9 9 9 9 9 7 7 4 6 8
4 14 11 11 12 18 21 20 18 12 13 7 10 10 10 10 13 4 12 15 15 14 15 16 16 15 13 14 13 12 11 11 12 11 10 8 8 7 7 6 4 6 7 10
3 10 16 3 5 3 19 12 13 8 5 11 10 6 2 10 10 11 11 14 14 14 15 15 16 16 15 14 14 13 12 11 12 12 10 11 7 6 5 7 6 6 6 7
6 8 5 8 9 7 3 13 9 7 7 8 8 8 10 9 10 11 14 14 14 16 15 16 16 16 16 15 14 13 13 12 12 12 10 10 10 7 6 6 5 6 8 6
9 9 9 12 13 2 11 9 5 7 7 6 7 11 11 10 7 7 9 7 14 16 16 16 16 16 16 15 15 14 13 12 12 11 10 10 7 8 7 5 9 8 9 8
5 4 5 19 5 5 7 6 7 7 9 6 7 9 10 8 7 6 6 10 15 15 16 16 17 16 16 15 15 14 14 14 13 13 10 10 9 7 9 8 8 9 9 8
5 2 11 7 13 13 13 8 9 8 8 8 9 9 9 7 7 6 6 9 13 15 17 17 18 17 16 15 16 15 15 14 13 12 10 11 9 8 7 8 8 7 7 9
3 6 9 11 13 13 10 12 10 9 8 8 9 10 10 8 6 6 6 8 12 16 18 18 18 18 16 16 16 16 15 15 13 12 11 11 9 8 8 7 7 9 10 7
2 7 9 1 11 11 9 12 14 11 10 10 10 11 11 10 7 5 6 7 11 15 17 19 19 18 17 17 17 15 15 14 14 12 11 11 9 7 7 7 2 5 6 9
3 4 5 11 14 9 10 12 12 13 12 10 10 12 12 11 10 7 6 7 10 14 16 19 20 19 19 19 18 16 14 13 12 12 12 11 10 8 11 9 10 11 12 6
4 8 11 12 7 8 10 11 11 12 12 11 11 11 13 12 13 13 8 9 10 14 16 18 19 19 20 19 19 17 14 13 12 12 12 11 11 10 10 4 9 10 12 11
9 8 10 6 10 10 10 9 9 11 9 11 12 11 12 13 13 14 11 10 10 12 16 17 19 20 20 20 20 18 15 14 12 13 12 12 12 11 10 11 10 9 2 6
11 12 11 12 11 7 8 11 10 10 10 10 12 12 13 13 13 13 15 8 9 12 14 17 19 20 21 21 19 19 16 14 13 13 12 12 12 11 11 12 12 11 11 5
11 10 12 14 13 9 7 10 11 10 11 11 11 12 14 13 12 11 12 15 11 8 11 15 18 19 20 20 18 16 16 15 15 12 12 12 11 12 11 11 12 12 13 13
13 14 14 12 11 16 13 9 10 11 11 11 11 12 12 13 12 11 12 13 12 10 8 12 15 17 20 20 18 15 14 14 16 13 13 13 12 12 12 11 11 11 13 15
6 11 10 12 11 11 13 13 14 15 13 12 12 12 11 12 13 11 12 12 12 5 6 7 5 10 18 20 18 16 14 14 16 15 13 13 13 13 13 13 13 13 12 10
5 6 11 11 10 12 12 12 11 12 14 14 11 11 10 11 11 12 11 10 10 12 14 11 14 12 12 17 17 16 15 16 16 14 14 13 12 14 13 13 14 14 13 12
11 13 12 13 15 11 11 12 16 13 13 17 13 10 11 9 9 11 11 9 7 9 11 10 12 10 9 10 13 15 16 17 17 15 15 14 14 13 13 14 14 14 13 12
14 14 14 14 13 13 12 13 14 15 14 13 16 11 10 10 10 9 10 8 9 9 12 10 7 11 8 10 6 14 15 14 14 14 14 14 14 14 13 14 14 13 12 12
11 12 13 12 13 16 15 14 11 14 16 12 13 18 15 10 10 10 7 10 3 12 9 7 8 12 10 15 9 12 15 15 13 12 13 12 13 13 13 13 14 13 12 12
10 10 9 10 12 13 15 14 13 14 15 15 17 18 15 14 12 8 9 8 10 9 9 8 7 8 11 9 9 11 13 16 15 14 13 12 11 13 12 13 12 11 11 12
7 8 10 10 10 11 13 13 13 14 16 17 16 16 13 11 13 14 14 12 10 5 8 9 6 4 7 8 9 12 9 13 13 11 12 10 13 11 11 9 9 6 7 8
5 5 8 10 9 8 12 12 10 13 15 15 15 13 16 11 10 13 14 15 18 11 11 9 7 5 7 6 8 8 11 11 8 7 10 10 9 10 11 10 8 10 12 12
5 4 4 8 8 7 9 9 10 10 11 12 11 12 12 11 12 12 13 17 17 18 15 11 10 8 8 7 7 7 10 12 8 7 8 10 12 12 12 12 12 9 9 8
4 1 5 6 6 6 6 7 8 10 10 12 12 11 13 13 12 13 13 13 15 16 16 13 11 9 9 10 9 7 8 9 9 10 9 9 11 11 11 13 12 9 9 9
Wind_Direction
274 294 301 211 207 197 193 206 203 196 193 164 123 103 103 133 155 157 164 167 162 168 162 159 161 159 160 167 160 163 165 135 119 163 158 138 135 149 164 134 290 130 99 127
279 274 281 209 214 202 196 199 223 182 193 164 129 129 130 130 170 173 171 175 168 169 165 162 163 163 162 163 158 163 167 121 155 142 142 132 155 147 162 150 158 132 144 129
236 257 261 213 203 195 199 194 215 192 196 204 148 140 124 73 110 187 179 177 174 174 169 163 164 165 165 163 160 163 170 142 139 143 143 151 155 159 157 141 162 153 119 113
269 249 219 201 205 199 192 194 203 224 195 158 52 38 31 356 345 250 190 174 174 177 169 163 161 163 166 163 166 166 167 154 143 159 153 150 156 149 148 126 132 128 141 138
253 231 103 67 141 171 186 144 28 323 268 35 40 348 166 38 342 332 294 167 174 173 167 166 166 159 168 166 171 170 163 164 155 153 155 141 152 162 134 137 148 145 156 122
262 230 168 319 15 19 348 102 41 6 22 9 347 243 89 356 339 337 318 165 171 170 166 168 170 165 171 169 175 175 164 172 158 157 161 136 146 159 145 154 118 107 129 143
260 245 115 335 322 292 210 78 31 31 37 4 317 341 325 309 319 315 302 202 169 167 169 171 170 171 180 171 178 176 163 171 152 146 154 127 135 139 153 152 114 118 129 141
231 237 102 340 53 6 56 73 41 28 33 359 327 310 301 308 302 290 279 247 175 170 170 172 173 176 186 177 178 175 165 169 157 148 172 141 146 155 148 134 128 126 125 125
38 43 294 25 53 38 9 38 29 14 12 356 340 342 314 305 293 270 249 249 185 175 172 175 178 180 187 180 181 175 168 169 166 160 173 145 156 160 147 167 143 154 145 125
306 11 321 53 36 21 13 352 359 8 5 356 349 338 336 321 308 284 243 221 209 182 177 177 181 183 189 179 185 176 170 169 168 173 172 160 168 176 159 187 173 170 160 141
19 6 308 256 8 354 4 351 345 360 349 3 347 351 346 332 325 297 259 229 221 194 180 179 182 185 187 180 186 176 173 172 174 180 183 167 194 177 185 179 188 190 159 152
358 5 301 305 316 351 346 344 334 342 338 353 349 349 347 348 342 336 282 245 209 205 190 180 183 187 186 182 184 176 175 178 179 183 181 179 188 158 52 56 82 64 55 61
303 301 297 296 286 330 332 327 337 317 326 342 355 348 354 349 354 313 243 263 244 205 204 185 184 189 187 184 183 177 186 179 179 199 176 191 190 185 176 90 62 62 71 69
318 335 316 316 323 316 311 318 321 321 330 342 346 349 355 351 349 341 341 317 226 224 203 196 187 192 186 187 182 181 187 178 193 201 182 199 190 194 189 177 183 185 166 85
343 327 303 294 293 327 329 322 328 327 341 338 340 351 349 349 349 345 335 324 277 222 210 204 191 194 185 188 181 184 182 187 204 187 197 196 190 198 198 187 183 187 174 136
324 315 330 335 334 336 335 322 321 331 326 331 331 343 337 337 341 350 346 338 315 230 220 212 198 197 186 190 179 186 186 196 190 190 203 191 201 198 200 199 188 191 182 183
356 355 346 342 341 330 328 331 320 320 317 320 332 323 330 334 334 352 350 343 320 298 248 228 213 201 192 190 181 190 191 190 189 212 199 194 204 198 201 200 198 197 196 181
20 360 351 335 346 342 334 341 338 333 329 321 317 317 320 330 330 344 348 340 321 300 289 284 281 226 203 191 185 201 195 192 190 209 198 199 201 206 204 204 204 203 203 175
19 7 0 359 353 2 360 352 336 321 312 307 312 309 313 313 325 332 335 338 336 17 9 332 356 317 251 207 184 204 206 199 186 204 213 197 190 206 207 210 210 208 206 178
17 42 30 360 355 15 5 351 348 345 349 327 315 307 302 308 322 322 326 324 67 9 337 332 327 292 267 261 184 201 219 205 197 197 212 202 202 202 211 210 215 214 210 213
12 30 6 16 19 19 11 14 3 351 348 340 323 314 308 310 300 314 308 311 59 25 344 314 303 347 235 340 238 222 217 225 204 191 208 215 202 201 207 215 208 221 214 211
15 33 11 2 13 20 22 14 5 3 356 2 351 340 331 312 308 296 304 307 23 32 344 341 24 0 345 334 268 222 231 241 215 206 193 212 216 203 205 206 220 202 217 221
4 28 12 360 4 15 19 26 19 11 10 11 3 1 348 332 327 313 306 318 344 18 333 323 11 359 334 305 275 247 230 234 237 208 214 204 216 216 205 211 206 231 217 212
17 9 25 3 5 5 12 7 26 27 12 11 13 6 359 347 337 327 334 311 282 299 314 297 315 343 316 305 293 299 249 228 249 218 219 224 220 218 213 204 203 207 214 237
357 7 48 15 12 352 344 10 10 17 11 14 9 7 2 356 349 333 318 311 310 301 289 268 229 251 280 295 299 282 291 300 267 227 224 235 216 220 211 212 210 207 214 212
332 13 88 44 30 2 343 2 5 18 0 12 10 7 8 355 355 347 343 324 313 303 290 277 263 232 243 255 254 271 286 284 280 268 263 220 218 223 230 229 238 239 236 206
320 255 12 61 33 16 350 340 349 14 5 3 360 15 4 10 354 347 349 344 332 319 307 293 277 252 242 256 257 240 266 279 276 261 241 259 273 252 237 243 239 228 226 228